Location: Colonia Mina de C?rbuni
(46.1667°N, 22.7167°E)
Time: 11:39:34
(UTC+00:00)

BlueWalker 3 - Pass Details

Date: 04 February 2023
Orbit: 497 x 514 km, 53.2° (Epoch: 01 April)

Event Time Altitude Azimuth Distance (km) Brightness Sun altitude
Rises 18:07:47 0° 299° (WNW) 2,612 6.6 -26.2°
Reaches altitude 10° 18:10:04 10° 307° (NW) 1,729 5.4 -26.6°
Enters shadow 18:12:07 26° 327° (NNW) 1,029 3.8 -26.9°
